Weather History for Rawlins, WY

Change the Weather History Date:

Wednesday, April 17, 2013

  Actual Average Record
Temperature  
Mean Temperature 15 °F 40 °F  
Max Temperature 20 °F 54 °F 77 °F (1994)
Min Temperature 10 °F 27 °F 10 °F (2013)
Degree Days  
Heating Degree Days 50 25  
Month to date heating degree days 541 454  
Since 1 July heating degree days 7134 7426  
Cooling Degree Days 0 0  
Month to date cooling degree days 0 0  
Year to date cooling degree days 0 0  
Moisture  
Dew Point 11 °F    
Average Humidity 78    
Maximum Humidity 88    
Minimum Humidity 67    
Precipitation  
Precipitation 0.01 in 0.04 in 0.68 in (1968)
Month to date precipitation 0.42 0.56  
Year to date precipitation 1.10 2.02  
Sea Level Pressure  
Sea Level Pressure 30.04 in    
Wind  
Wind Speed 15 mph (NNE)    
Max Wind Speed 24 mph    
Max Gust Speed 29 mph    
Visibility 3 miles    
Events Fog , Snow    
T = Trace of Precipitation, MM = Missing Value Source: NWS Daily Summary

Daily Weather History Graph

Daily Weather History Graph

Search for Another Location

Airport:

Trip Planner

Search our weather history database for the weather conditions in past years. The results will help you decide how hot, cold, wet, or windy it might be!

Date:

Astronomy

Apr. 17, 2013 Rise Set
Actual Time 6:25 AM MDT 7:52 PM MDT
Civil Twilight 5:55 AM MDT 8:21 PM MDT
Nautical Twilight 5:20 AM MDT 8:56 PM MDT
Astronomical Twilight 4:43 AM MDT 9:33 PM MDT
Moon 11:40 AM MDT (4/17) 1:33 AM MDT (4/17)
Length of Visible Light 14h 25m
Length of Day
13h 27m
Waxing Crescent, 43% of the Moon is Illuminated
Apr 17
Waxing Crescent
Apr 18
First Quarter
Apr 25
Full
May 2
Last Quarter
May 9
New

Hourly Weather History & Observations

Time (MDT) Temp. Windchill Dew Point Humidity Pressure Visibility Wind Dir Wind Speed Gust Speed Precip Events Conditions
12:51 AM 15.8 °F 0.9 °F 12.2 °F 86% 29.92 in 2.0 mi North 15.0 mph - 0.00 in Snow Light Snow
12:53 AM 16.0 °F 1.7 °F 12.0 °F 84% 30.06 in 2.5 mi North 13.8 mph - 0.00 in Snow Light Snow
1:26 AM 15.8 °F 0.9 °F 12.2 °F 86% 29.93 in 1.8 mi North 15.0 mph - 0.00 in Snow Light Snow
1:38 AM 17.6 °F 3.7 °F 12.2 °F 79% 29.92 in 2.0 mi North 13.8 mph 20.7 mph 0.00 in Snow Light Snow
1:53 AM 16.0 °F 2.3 °F 12.0 °F 84% 30.07 in 2.5 mi North 12.7 mph - 0.00 in Snow Light Snow
2:24 AM 15.8 °F 1.4 °F 12.2 °F 86% 29.91 in 1.2 mi North 13.8 mph 20.7 mph 0.00 in Snow Light Snow
2:53 AM 16.0 °F 2.9 °F 12.0 °F 84% 30.06 in 2.0 mi North 11.5 mph - 0.00 in Snow Light Snow
3:25 AM 15.8 °F 2.7 °F 12.2 °F 86% 29.91 in 2.5 mi NNE 11.5 mph - 0.00 in Snow Light Snow
3:39 AM 15.8 °F 3.4 °F 12.2 °F 86% 29.90 in 3.0 mi NNE 10.4 mph - 0.00 in Snow Light Snow
3:53 AM 16.0 °F 0.6 °F 12.0 °F 84% 30.05 in 4.0 mi NNE 16.1 mph - 0.00 in Snow Light Snow
4:02 AM 15.8 °F 2.7 °F 12.2 °F 86% 29.90 in 4.0 mi North 11.5 mph - 0.00 in Snow Light Snow
4:09 AM 15.8 °F 1.4 °F 12.2 °F 86% 29.90 in 4.0 mi NNE 13.8 mph 20.7 mph 0.00 in Snow Light Snow
4:21 AM 15.8 °F 2.1 °F 12.2 °F 86% 29.90 in 4.0 mi NNE 12.7 mph - 0.00 in Snow Light Snow
4:53 AM 16.0 °F 1.1 °F 10.9 °F 81% 30.06 in 6.0 mi North 15.0 mph - 0.00 in Snow Light Snow
5:00 AM 15.8 °F 0.9 °F 10.4 °F 79% 29.90 in 5.0 mi NNE 15.0 mph - 0.00 in Snow Light Snow
5:23 AM 15.8 °F 0.9 °F 10.4 °F 79% 29.90 in 2.5 mi North 15.0 mph - 0.00 in Snow Light Snow
5:38 AM 15.8 °F 0.9 °F 10.4 °F 79% 29.89 in 1.8 mi North 15.0 mph - 0.00 in Snow Light Snow
5:53 AM 15.1 °F -0.1 °F 10.9 °F 84% 30.06 in 1.8 mi North 15.0 mph - 0.00 in Snow Light Snow
6:53 AM 15.1 °F -1.1 °F 10.9 °F 84% 30.07 in 1.5 mi North 17.3 mph - 0.00 in Snow Light Snow
7:04 AM 15.8 °F -0.2 °F 10.4 °F 79% 29.90 in 1.2 mi North 17.3 mph - 0.00 in Snow Light Snow
7:34 AM 15.8 °F -0.2 °F 10.4 °F 79% 29.90 in 0.5 mi North 17.3 mph - 0.00 in Fog , Snow Snow
8:04 AM 15.8 °F -0.2 °F 10.4 °F 79% 29.90 in 0.5 mi North 17.3 mph - 0.00 in Fog , Snow Snow
8:31 AM 15.8 °F -1.1 °F 10.4 °F 79% 29.91 in 1.0 mi North 19.6 mph - 0.00 in Snow Light Snow
8:53 AM 15.1 °F -3.3 °F 10.9 °F 84% 30.08 in 0.8 mi North 23.0 mph - 0.00 in Snow Light Snow
9:53 AM 15.1 °F -2.9 °F 10.0 °F 80% 30.09 in 0.8 mi North 21.9 mph - 0.00 in Snow Light Snow
10:08 AM 15.8 °F -2.7 °F 10.4 °F 79% 29.91 in 1.0 mi North 24.2 mph - 0.00 in Snow Light Snow
10:53 AM 16.0 °F -1.7 °F 10.9 °F 81% 30.11 in 1.0 mi North 21.9 mph - 0.00 in Snow Light Snow
11:20 AM 15.8 °F -1.5 °F 10.4 °F 79% 29.95 in 0.8 mi NNE 20.7 mph - 0.00 in Snow Light Snow
11:27 AM 17.6 °F 1.3 °F 10.4 °F 73% 29.94 in 0.8 mi NNE 19.6 mph - 0.00 in Snow Light Snow
11:44 AM 17.6 °F 2.2 °F 12.2 °F 79% 29.95 in 1.0 mi NNE 17.3 mph - 0.00 in Snow Light Snow
11:53 AM 18.0 °F 2.2 °F 12.0 °F 78% 30.12 in 1.2 mi NNE 18.4 mph 25.3 mph 0.00 in Snow Light Snow
12:07 PM 17.6 °F 0.9 °F 12.2 °F 79% 29.95 in 2.5 mi NNE 20.7 mph - 0.00 in Snow Light Snow
12:15 PM 17.6 °F 0.5 °F 12.2 °F 79% 29.95 in 4.0 mi NNE 21.9 mph 28.8 mph 0.00 in Snow Light Snow
12:53 PM 19.0 °F 3.2 °F 12.0 °F 74% 30.12 in 4.0 mi NNE 19.6 mph - 0.00 in Snow Light Snow
1:00 PM 19.4 °F 3.6 °F 12.2 °F 74% 29.95 in 2.5 mi NNE 19.6 mph - 0.00 in Snow Light Snow
1:16 PM 19.4 °F 3.2 °F 12.2 °F 74% 29.96 in 1.8 mi NNE 20.7 mph - 0.00 in Snow Light Snow
1:41 PM 19.4 °F 3.6 °F 12.2 °F 74% 29.96 in 2.0 mi NNE 19.6 mph - 0.00 in Snow Light Snow
1:53 PM 19.0 °F 3.2 °F 12.0 °F 74% 30.13 in 3.0 mi NNE 19.6 mph - 0.00 in Snow Light Snow
2:06 PM 19.4 °F 3.2 °F 12.2 °F 74% 29.97 in 2.5 mi NNE 20.7 mph - 0.00 in Snow Light Snow
2:53 PM 19.9 °F 4.8 °F 12.0 °F 71% 30.15 in 10.0 mi NNE 18.4 mph - 0.00 in   Overcast
3:46 PM 17.6 °F 1.7 °F 12.2 °F 79% 30.01 in 2.0 mi NNE 18.4 mph - 0.00 in Snow Light Snow
3:53 PM 19.0 °F 3.2 °F 12.0 °F 74% 30.18 in 2.0 mi North 19.6 mph - 0.00 in Snow Light Snow
4:03 PM 17.6 °F 2.2 °F 12.2 °F 79% 30.01 in 1.8 mi North 17.3 mph - 0.00 in Snow Light Snow
4:09 PM 19.4 °F 3.6 °F 10.4 °F 68% 30.02 in 3.0 mi NNE 19.6 mph - 0.00 in Snow Light Snow
4:53 PM 18.0 °F 1.7 °F 10.0 °F 71% 30.20 in 10.0 mi North 19.6 mph - 0.00 in   Overcast
5:23 PM 17.6 °F 3.7 °F 10.4 °F 73% 30.04 in 10.0 mi NNE 13.8 mph - N/A   Overcast
5:53 PM 17.1 °F 3.0 °F 10.0 °F 74% 30.23 in 10.0 mi NNE 13.8 mph - N/A   Overcast
6:53 PM 17.1 °F 8.7 °F 9.0 °F 71% 30.25 in 8.0 mi ENE 5.8 mph - 0.00 in   Overcast
7:30 PM 15.8 °F 8.6 °F 10.4 °F 79% 30.07 in 2.0 mi ENE 4.6 mph - 0.00 in Snow Light Snow
7:35 PM 15.8 °F 8.6 °F 10.4 °F 79% 30.06 in 1.5 mi ENE 4.6 mph - 0.00 in Snow Light Snow
7:53 PM 15.1 °F - 10.9 °F 84% 30.26 in 1.2 mi Calm Calm - 0.00 in Snow Light Snow
8:53 PM 14.0 °F 0.5 °F 10.0 °F 84% 30.28 in 1.2 mi ENE 11.5 mph - 0.00 in Snow Light Snow
9:14 PM 14.0 °F 1.2 °F 10.4 °F 86% 30.09 in 3.0 mi ENE 10.4 mph - 0.00 in Snow Light Snow
9:53 PM 14.0 °F 2.9 °F 10.0 °F 84% 30.30 in 4.0 mi NE 8.1 mph - 0.00 in Snow Light Snow
10:34 PM 14.0 °F 2.0 °F 10.4 °F 86% 30.11 in 2.5 mi NE 9.2 mph - 0.00 in Snow Light Snow
10:53 PM 14.0 °F 3.9 °F 10.0 °F 84% 30.30 in 1.5 mi NE 6.9 mph - 0.00 in Snow Light Snow
11:06 PM 14.0 °F 2.9 °F 10.4 °F 86% 30.11 in 1.8 mi NE 8.1 mph - 0.01 in Snow Light Snow
11:41 PM 12.2 °F 1.7 °F 10.4 °F 92% 30.10 in 2.5 mi NE 6.9 mph - 0.01 in Snow Light Snow
11:53 PM 12.9 °F 3.8 °F 9.0 °F 84% 30.29 in 4.0 mi NNE 5.8 mph - 0.01 in Snow Light Snow